Tracking 20083 objects as of 11-Dec-2019
HD Live streaming from Space Station
objects crossing your sky now

FENGYUN 1C DEB

Track FENGYUN 1C DEB now!
10-day predictions


NORAD ID: 31266
Int'l Code: 1999-025BMY
Perigee: 737.4 km
Apogee: 935.1 km
Inclination: 99.2 °
Period: 101.5 minutes
Semi major axis: 7207 km
RCS: 0.0121 m2 (small)
Launch date: May 10, 1999
Source: People's Republic of China (PRC)
Launch site: Taiyaun Space Center, China (TSC)

Note: This is SATELLITE DEBRIS
aabbcc
Your satellite tracking list
Your tracking list is empty




NASA's NSSDC Master Catalog

Two Line Element Set (TLE):
1 31266U 99025BMY 19344.90754927 +.00000123 +00000-0 +74488-4 0  9998
2 31266 099.2107 215.3695 0137150 036.9551 028.8362 14.18885870660725
Source of the keplerian elements: AFSPC